DW9924 Weather Reports


Display with metric or nautical units.
time (UTC)temp
F
wind
direction
speed
MPH
gust
MPH
rain 1hr
in
rain 24hr
in
rain mn
in
humidity
%
barometer
mb
20260902033906 74 16 1.0 2.0 0.00 0.00 0.00 83 1018.3
20260902033406 74 29 2.0 3.0 0.00 0.00 0.00 83 1018.3
20260902031906 74 10 2.0 2.0 0.00 0.00 0.00 83 1018.4
20260902031406 74 37 1.0 2.0 0.00 0.00 0.00 83 1018.4
20260902030906 74 5 1.0 2.0 0.00 0.00 0.00 83 1018.3
20260902024907 74 28 2.0 3.0 0.00 0.00 0.00 82 1018.4
20260902024407 74 24 1.0 3.0 0.00 0.00 0.00 82 1018.4
20260902023907 74 12 1.0 3.0 0.00 0.00 0.00 83 1018.4
20260902023407 74 24 1.0 3.0 0.00 0.00 0.00 82 1018.3
20260902021406 74 43 1.0 3.0 0.00 0.00 0.00 82 1018.2
20260902020406 74 34 2.0 3.0 0.00 0.00 0.00 81 1018.3
20260902014906 74 32 1.0 3.0 0.00 0.00 0.00 81 1018.3
20260902013906 74 355 0.0 2.0 0.00 0.00 0.00 81 1018.4
20260902011906 74 2 2.0 3.0 0.00 0.00 0.00 80 1018.4
20260902011406 75 7 1.0 3.0 0.00 0.00 0.00 80 1018.4
20260902010906 75 19 1.0 2.0 0.00 0.00 0.00 80 1018.3
20260902010406 75 34 1.0 3.0 0.00 0.00 0.00 80 1018.3
20260902004906 75 29 2.0 3.0 0.00 0.00 0.00 80 1018.4
20260902004406 75 20 1.0 3.0 0.00 0.00 0.00 81 1018.3
20260902003906 75 45 1.0 3.0 0.00 0.00 0.00 81 1018.3
20260902003406 75 27 1.0 3.0 0.00 0.00 0.00 81 1018.4
20260902001906 75 16 3.0 3.0 0.00 0.00 0.00 82 1018.5
20260902000906 75 14 1.0 3.0 0.00 0.00 0.00 82 1018.5
20260901234907 75 0 1.0 3.0 0.00 0.00 0.00 83 1018.6
20260901234406 75 358 1.0 2.0 0.00 0.00 0.00 83 1018.6
20260901233905 75 9 1.0 3.0 0.00 0.00 0.00 83 1018.6
20260901233406 75 22 1.0 3.0 0.00 0.00 0.00 83 1018.6
20260901231906 75 38 2.0 3.0 0.00 0.00 0.00 83 1018.6
20260901231406 75 17 1.0 3.0 0.00 0.00 0.00 83 1018.6
20260901230906 75 26 2.0 3.0 0.00 0.00 0.00 83 1018.6
20260901230406 75 15 1.0 3.0 0.00 0.00 0.00 83 1018.6
20260901224905 75 42 1.0 2.0 0.00 0.00 0.00 84 1018.7
20260901224406 75 358 1.0 2.0 0.00 0.00 0.00 84 1018.7
20260901223907 75 22 1.0 2.0 0.00 0.00 0.00 84 1018.8
20260901221905 76 36 2.0 3.0 0.00 0.00 0.00 83 1018.7
20260901221406 76 30 1.0 2.0 0.00 0.00 0.00 83 1018.6
20260901220905 76 39 1.0 2.0 0.00 0.00 0.00 83 1018.6
20260901220406 76 40 1.0 2.0 0.00 0.00 0.00 83 1018.5
20260901214905 76 36 1.0 2.0 0.00 0.00 0.00 82 1018.4
20260901214405 76 101 0.0 2.0 0.00 0.00 0.00 82 1018.4
20260901213905 76 71 0.0 2.0 0.00 0.00 0.00 82 1018.5
20260901213406 76 117 0.0 3.0 0.00 0.00 0.00 82 1018.5
20260901211921 76 34 1.0 2.0 0.00 0.00 0.00 82 1018.5
20260901204405 76 74 0.0 2.0 0.00 0.00 0.00 81 1018.7
20260901203910 76 76 0.0 1.0 0.00 0.00 0.00 81 1018.8
20260901201905 76 38 0.0 2.0 0.00 0.00 0.00 81 1018.8
20260901201408 76 53 0.0 1.0 0.00 0.00 0.00 82 1018.8
20260901200905 76 44 1.0 1.0 0.00 0.00 0.00 82 1018.8
20260901200412 76 24 1.0 2.0 0.00 0.00 0.00 82 1018.8
20260901194405 76 84 1.0 2.0 0.00 0.00 0.00 82 1018.5
20260901193909 77 14 1.0 2.0 0.00 0.00 0.00 82 1018.4
20260901193405 77 14 1.0 3.0 0.00 0.00 0.00 81 1018.3
20260901191908 77 21 1.0 2.0 0.00 0.00 0.00 81 1018.3
20260901190406 78 34 1.0 3.0 0.00 0.00 0.00 79 1018.0
20260901184408 78 4 1.0 3.0 0.00 0.00 0.00 78 1017.7
20260901183920 79 17 1.0 3.0 0.00 0.00 0.00 77 1017.6
20260901183406 79 344 1.0 3.0 0.00 0.00 0.00 77 1017.6
20260901181912 80 9 1.0 2.0 0.00 0.00 0.00 76 1017.6
20260901180920 80 231 0.0 1.0 0.00 0.00 0.00 76 1017.5
20260901174405 81 262 0.0 2.0 0.00 0.00 0.00 75 1017.3
20260901173905 81 251 1.0 3.0 0.00 0.00 0.00 74 1017.2
20260901171905 81 194 1.0 3.0 0.00 0.00 0.00 71 1017.1
20260901170905 82 143 2.0 5.0 0.00 0.00 0.00 70 1017.2
20260901170405 82 148 2.0 3.0 0.00 0.00 0.00 71 1017.2
20260901163905 83 165 1.0 3.0 0.00 0.00 0.00 70 1017.1
20260901163406 83 162 2.0 3.0 0.00 0.00 0.00 70 1017.1
20260901161906 83 172 2.0 7.0 0.00 0.00 0.00 70 1017.1
20260901161405 83 208 2.0 5.0 0.00 0.00 0.00 70 1017.1
20260901154906 84 217 1.0 2.0 0.00 0.00 0.00 71 1017.3
20260901154404 84 256 3.0 6.0 0.00 0.00 0.00 69 1017.3
20260901153905 84 277 2.0 5.0 0.00 0.00 0.00 70 1017.3
20260901153405 84 230 2.0 7.0 0.00 0.00 0.00 69 1017.3
20260901151905 84 155 3.0 7.0 0.00 0.00 0.00 66 1017.5
20260901150906 84 150 2.0 6.0 0.00 0.00 0.00 66 1017.5
20260901150405 84 166 3.0 7.0 0.00 0.00 0.00 64 1017.5
20260901144906 85 214 1.0 3.0 0.00 0.00 0.00 68 1017.6
20260901144405 85 204 1.0 5.0 0.00 0.00 0.00 69 1017.7
20260901143905 85 232 1.0 5.0 0.00 0.00 0.00 69 1017.7
20260901143408 85 232 3.0 6.0 0.00 0.00 0.00 67 1017.6
20260901141905 86 248 1.0 2.0 0.00 0.00 0.00 68 1017.8
20260901140405 85 227 1.0 3.0 0.00 0.00 0.00 70 1017.9
20260901134904 86 145 2.0 6.0 0.00 0.00 0.00 70 1018.0
20260901133904 87 211 1.0 3.0 0.00 0.00 0.00 68 1018.0
20260901131405 87 283 1.0 2.0 0.00 0.00 0.00 68 1018.1
20260901130404 87 180 1.0 5.0 0.00 0.00 0.00 68 1018.0
20260901124904 85 183 2.0 6.0 0.00 0.00 0.00 69 1018.1
20260901124405 84 129 2.0 6.0 0.00 0.00 0.00 69 1018.1
20260901121904 85 174 2.0 6.0 0.00 0.00 0.00 69 1018.1
20260901121404 85 162 2.0 8.0 0.00 0.00 0.00 68 1018.1
20260901120905 86 171 1.0 5.0 0.00 0.00 0.00 69 1018.0
20260901120404 85 168 1.0 8.0 0.00 0.00 0.00 70 1018.0
20260901114904 84 162 3.0 6.0 0.00 0.00 0.00 69 1017.9
20260901114404 84 144 4.0 8.0 0.00 0.00 0.00 68 1017.9
20260901113906 84 149 5.0 9.0 0.00 0.00 0.00 68 1018.0
20260901111906 84 154 3.0 8.0 0.00 0.00 0.00 70 1017.8
20260901111404 84 149 3.0 7.0 0.00 0.00 0.00 72 1017.9
20260901104406 85 131 2.0 8.0 0.00 0.00 0.00 70 1018.0
20260901103904 85 158 4.0 9.0 0.00 0.00 0.00 70 1017.9
20260901103406 85 171 3.0 9.0 0.00 0.00 0.00 68 1017.8
20260901101904 85 132 2.0 10.0 0.00 0.00 0.00 69 1017.8
20260901101404 84 143 3.0 7.0 0.00 0.00 0.00 68 1017.9
20260901100910 84 153 3.0 8.0 0.00 0.00 0.00 68 1017.9
20260901100405 84 271 2.0 8.0 0.00 0.00 0.00 69 1017.9
20260901094907 84 156 2.0 9.0 0.00 0.00 0.00 69 1017.8
20260901093910 84 150 3.0 8.0 0.00 0.00 0.00 68 1017.8
20260901093422 84 182 2.0 8.0 0.00 0.00 0.00 69 1017.8
20260901091907 84 136 2.0 3.0 0.00 0.00 0.00 68 1017.7
20260901090907 83 101 2.0 7.0 0.00 0.00 0.00 70 1017.6
20260901090408 83 128 2.0 7.0 0.00 0.00 0.00 69 1017.5
20260901084910 83 141 1.0 2.0 0.00 0.00 0.00 71 1017.5
20260901084407 82 211 1.0 7.0 0.00 0.00 0.00 71 1017.4
20260901083908 82 171 2.0 9.0 0.00 0.00 0.00 69 1017.4
20260901083407 82 148 3.0 8.0 0.00 0.00 0.00 68 1017.4
20260901081907 83 203 0.0 2.0 0.00 0.00 0.00 67 1017.3
20260901081407 82 139 1.0 3.0 0.00 0.00 0.00 68 1017.3
20260901074907 83 153 2.0 3.0 0.00 0.00 0.00 67 1017.2
20260901074407 82 132 2.0 5.0 0.00 0.00 0.00 67 1017.1
20260901071907 81 165 1.0 3.0 0.00 0.00 0.00 70 1017.1
20260901071406 81 161 1.0 3.0 0.00 0.00 0.00 71 1017.1
20260901070407 80 152 2.0 5.0 0.00 0.00 0.00 71 1017.0
20260901063406 78 21 1.0 6.0 0.00 0.00 0.00 74 1016.8
20260901061908 78 97 1.0 3.0 0.00 0.00 0.00 74 1016.6
20260901061406 77 43 2.0 6.0 0.00 0.00 0.00 74 1016.6
20260901060407 77 58 1.0 5.0 0.00 0.00 0.00 74 1016.5
20260901054906 77 53 2.0 6.0 0.00 0.00 0.00 75 1016.4
20260901054406 77 2 2.0 3.0 0.00 0.00 0.00 75 1016.4
20260901053906 77 32 1.0 3.0 0.00 0.00 0.00 75 1016.3
20260901053406 77 71 1.0 8.0 0.00 0.00 0.00 75 1016.3
20260901051906 77 343 2.0 6.0 0.00 0.00 0.00 75 1016.2
20260901051407 77 53 4.0 12.0 0.00 0.00 0.00 75 1016.2
20260901050907 77 21 2.0 5.0 0.00 0.00 0.00 75 1016.3
20260901044406 77 73 3.0 7.0 0.00 0.00 0.00 74 1016.2
20260901043907 77 114 2.0 6.0 0.00 0.00 0.00 74 1016.2
20260901043406 77 96 0.0 3.0 0.00 0.00 0.00 74 1016.2
20260901041906 78 97 2.0 5.0 0.00 0.00 0.00 73 1016.3
20260901041406 78 37 1.0 3.0 0.00 0.00 0.00 74 1016.2
20260901040906 77 33 3.0 5.0 0.00 0.00 0.00 74 1016.3
20260901040406 77 121 1.0 3.0 0.00 0.00 0.00 74 1016.3
20260901034907 77 52 1.0 3.0 0.00 0.00 0.00 74 1016.2